Regional Weather Roundup
Issued by NWS

Home | Current Version | Previous Version | Graphics & Text | Print | Product List | Glossary On
Versions: 1 2 3 4 5 6 7 8 9 10 11 12 13 14 15 16 17 18 19 20 21 22 23 24 25 26 27 28 29 30 31 32 33 34 35 36 37 38 39 40 41 42 43 44 45 46 47 48 49 50
923
ASUS43 KFSD 250802
RWRSD

WEATHER ROUNDUP FOR SOUTH DAKOTA
NATIONAL WEATHER SERVICE SIOUX FALLS SD
200 AM CST SUN FEB 25 2018

NOTE: "FAIR" INDICATES FEW OR NO CLOUDS BELOW 12,000 FEET WITH NO
SIGNIFICANT WEATHER AND/OR OBSTRUCTIONS TO VISIBILITY.


SDZ001>005-009-010-012>017-250900-
NORTHWEST AND NORTH CENTRAL SOUTH DAKOTA

CITY           SKY/WX    TMP DP  RH WIND       PRES   REMARKS
BUFFALO          N/A     13   5  70 W25       29.60R WCI  -7
FAITH            N/A     14   8  77 W16       29.67R WCI  -2
MOBRIDGE       CLEAR     11   5  77 NW7       29.60S WCI   0
$$

SDZ012>016-024>037-041>051-057-063-072>074-250900-
SOUTHWEST AND SOUTH CENTRAL SOUTH DAKOTA

CITY           SKY/WX    TMP DP  RH WIND       PRES   REMARKS
RAPID CTY ARPT PTCLDY    10   1  67 CALM      29.71R
PIERRE         CLEAR     19  10  68 W16       29.68R WCI   4
CUSTER         PTCLDY    18   0  45 W10       29.64R WCI   6
ELLSWORTH AFB  PTCLDY    16   3  58 CALM      29.70R
PHILIP         CLEAR     14   6  70 W10       29.75R WCI   1
PINE RIDGE     MOCLDY    17   7  64 SW6       29.78S WCI   9
SPEARFISH        N/A     25   7  46 W12G17    29.70R WCI  14
WINNER         FAIR      20   9  62 SW13      29.73R WCI   7
$$

SDZ004>011-016>023-039-040-250900-
NORTHEAST SOUTH DAKOTA

CITY           SKY/WX    TMP DP  RH WIND       PRES   REMARKS
ABERDEEN       PTCLDY     4   1  88 SW8       29.62S WCI  -9
WATERTOWN      CLEAR      7   5  91 W14       29.58S WCI -10
BROOKINGS      CLEAR      9   6  88 W9        29.64R WCI  -4
SISSETON         N/A     15  11  83 W18G25    29.55F WCI  -2
$$

SDZ017-020-022-023-036>040-048>070-250900-
SOUTHEAST SOUTH DAKOTA

CITY           SKY/WX    TMP DP  RH WIND       PRES   REMARKS
SIOUX FALLS    CLEAR     12   7  80 W13       29.69F WCI  -3
HURON          CLEAR      7   4  87 SW7       29.68R WCI  -5
CHAMBERLAIN    CLEAR     19  12  73 SW13      29.71S WCI   7
MITCHELL       CLEAR     15   8  73 W14       29.72S WCI   0
YANKTON        CLOUDY    22  12  65 W15       29.75S WCI   9
$$

ABBREVIATIONS USED IN REMARKS
   TC - TEMPERATURE IN CELSIUS
  WCI - WIND CHILL INDEX
   HX - HEAT INDEX
  VSB - VISIBILITY





USA.gov is the U.S. government's official web portal to all federal, state and local government web resources and services.